Dewpoint
8 8 8 9 9 9 9 9 9 9 10 10 9 9 9 9 9 8 8 7 6 6 7 7 8 8 7 6 4 6 4 6 9 10 10 9 8 8
2 3 4 5 7 7 7 8 8 8 9 9 10 9 10 9 9 9 9 8 7 6 8 8 7 7 7 6 6 6 7 7 9 10 9 9 8 8
-7 -10 -4 -6 -1 -2 3 4 5 6 5 7 8 9 10 10 10 10 9 9 8 8 8 7 8 8 7 7 6 6 7 8 8 9 10 9 7 7
-4 -1 -5 -13 -12 -4 -4 -12 0 3 2 4 7 7 7 9 9 9 9 9 9 8 8 9 8 7 7 7 6 6 7 8 8 9 9 8 6 7
-24 -18 -15 -12 -14 -16 -16 -12 -14 -10 -10 -3 2 5 5 7 8 9 9 9 9 9 9 9 9 8 8 8 7 8 8 9 9 9 9 7 7 7
-23 -18 -17 -13 -17 -22 -22 -19 -17 -16 -15 -14 -11 -7 -1 3 6 6 7 8 7 8 8 8 8 8 8 8 8 8 8 8 9 9 7 7 7 3
-22 -19 -18 -20 -20 -17 -12 -6 -6 -12 -14 -14 -13 -9 -4 1 3 4 5 6 7 7 7 7 7 8 8 8 8 8 8 8 8 8 7 7 4 2
-21 -19 -18 -18 -14 -11 -10 -11 -8 -6 -4 -4 -6 -3 -3 -1 1 2 3 4 5 6 6 7 6 7 7 7 7 7 8 8 7 7 6 4 3 2
-14 -13 -11 -10 -8 -9 -8 -10 -14 -16 -12 -6 -5 -5 -5 -5 -2 -1 1 2 2 3 4 5 5 6 7 7 7 7 7 7 7 7 5 4 3 2
-12 -9 -8 -8 -8 -8 -8 -11 -13 -14 -12 -13 -12 -12 -12 -13 -12 -5 -2 -0 1 2 3 4 5 5 6 6 6 7 7 7 6 6 5 5 3 1
-8 -7 -8 -8 -7 -7 -7 -9 -9 -12 -13 -12 -12 -12 -15 -18 -17 -15 -16 -8 -3 -0 2 3 3 4 5 5 6 6 6 6 6 5 5 5 3 1
-7 -8 -10 -8 -7 -6 -7 -7 -7 -8 -8 -8 -14 -17 -16 -15 -13 -14 -9 -5 -4 -3 -0 2 3 4 4 5 5 6 6 6 5 5 5 5 4 1
-7 -7 -9 -7 -7 -7 -7 -7 -7 -7 -7 -9 -10 -10 -13 -11 -10 -5 -4 -6 -4 -3 -2 0 1 2 4 4 4 5 5 5 5 5 4 5 4 2
-7 -7 -8 -8 -7 -7 -7 -8 -7 -6 -7 -10 -9 -9 -9 -9 -8 -10 -8 -5 -6 -6 -4 -2 -1 1 2 3 4 4 4 4 4 4 4 4 3 2
-8 -8 -7 -7 -7 -7 -9 -8 -7 -7 -10 -10 -9 -10 -10 -10 -10 -10 -12 -12 -9 -8 -8 -4 -2 -1 0 2 3 3 3 2 2 3 3 3 3 3
-9 -9 -9 -9 -8 -10 -10 -11 -9 -10 -10 -10 -10 -10 -10 -10 -10 -9 -7 -6 -6 -7 -6 -6 -4 -1 -0 -0 2 3 3 2 2 2 2 2 2 2
-8 -8 -9 -10 -10 -11 -10 -9 -10 -11 -11 -11 -10 -10 -10 -10 -11 -10 -8 -7 -6 -5 -6 -5 -4 -2 -1 -1 0 1 2 3 2 3 1 1 1 2
-9 -9 -9 -9 -10 -9 -8 -9 -9 -9 -11 -11 -10 -10 -10 -10 -11 -10 -8 -7 -7 -6 -5 -5 -4 -3 -2 -1 -1 -0 1 2 2 1 1 -0 0 0
-10 -9 -8 -9 -9 -9 -9 -9 -9 -11 -11 -11 -11 -10 -10 -11 -10 -10 -9 -8 -7 -6 -5 -5 -5 -4 -3 -3 -2 -1 -0 0 0 -0 0 -0 0 0
-11 -11 -11 -12 -11 -11 -11 -11 -11 -11 -11 -11 -11 -11 -11 -11 -10 -10 -8 -8 -7 -6 -6 -6 -5 -5 -4 -3 -2 -2 -1 -1 -0 -0 -2 -2 -1 -0
-11 -11 -12 -12 -12 -12 -12 -12 -12 -12 -11 -11 -11 -11 -11 -11 -10 -9 -9 -8 -7 -6 -6 -6 -6 -5 -5 -4 -3 -3 -2 -3 -1 -0 -2 -2 -2 -2
-12 -12 -11 -11 -11 -12 -12 -12 -12 -12 -12 -12 -11 -10 -10 -11 -10 -9 -9 -8 -7 -7 -6 -6 -5 -5 -5 -5 -4 -3 -4 -4 -4 -3 -3 -2 -2 -4
-12 -12 -12 -12 -12 -12 -12 -12 -12 -12 -12 -11 -11 -10 -10 -10 -10 -10 -9 -8 -7 -7 -6 -6 -6 -6 -6 -5 -4 -4 -5 -5 -5 -5 -5 -4 -3 -2
Wind_Speed
15 14 13 20 19 16 18 13 20 31 30 31 38 40 38 43 44 50 51 47 40 33 32 34 37 37 35 31 29 30 36 36 33 39 31 28 25 22
14 14 16 15 14 16 15 17 21 18 20 27 34 39 39 41 45 45 42 41 44 39 32 32 32 33 32 31 28 32 37 33 33 35 38 31 27 28
16 17 17 19 19 21 22 22 20 20 22 17 13 20 29 33 32 34 38 39 40 35 31 30 32 32 33 31 28 31 35 37 37 38 43 39 31 31
20 22 21 21 22 24 24 23 24 24 25 26 21 20 20 30 35 36 41 39 36 39 39 37 35 37 33 34 35 37 41 41 39 38 45 34 32 29
16 17 18 21 21 21 20 23 23 22 23 25 28 27 26 19 23 22 31 37 36 29 33 38 41 45 43 43 43 38 40 41 42 43 40 35 33 28
16 16 16 18 21 21 21 21 23 23 23 23 23 22 24 23 19 18 18 21 26 27 35 37 38 42 44 44 44 44 42 41 44 41 38 35 31 29
16 17 18 18 17 17 18 17 20 22 23 23 24 23 19 18 18 19 19 20 22 22 25 30 31 32 32 34 36 35 36 35 43 37 36 33 29 28
18 19 20 19 16 17 15 16 18 18 18 21 21 21 21 17 17 16 19 22 26 24 24 24 27 27 27 27 26 26 33 40 31 34 34 30 30 28
16 16 17 16 17 18 21 21 20 18 16 17 20 20 23 23 24 27 23 21 21 25 28 28 26 27 27 25 30 38 34 31 36 36 32 32 31 28
15 15 17 19 21 19 23 25 23 24 22 20 23 25 26 26 27 27 28 34 33 29 24 33 29 27 26 31 36 38 37 38 38 34 34 33 30 28
14 13 16 15 19 17 21 24 25 24 23 23 24 25 25 25 24 27 29 29 30 30 32 29 32 31 30 33 37 38 38 39 37 36 36 33 30 28
19 19 17 15 15 16 21 24 26 27 25 29 28 26 24 23 20 19 21 26 29 30 24 30 30 31 34 37 41 43 43 42 41 40 38 36 31 28
24 25 21 15 17 19 21 22 25 23 25 28 26 25 25 24 24 18 19 24 27 29 26 25 29 32 35 24 28 43 46 47 44 42 39 39 35 29
23 24 25 23 23 23 23 24 23 22 26 24 24 26 25 27 25 25 29 30 28 32 28 26 30 29 36 41 41 36 39 48 48 46 44 41 35 31
24 23 23 25 25 27 29 25 23 24 26 25 26 27 27 29 32 34 32 29 33 31 32 34 33 33 36 42 41 42 36 45 49 48 47 44 41 37
29 28 28 29 27 29 29 28 23 26 26 28 29 29 30 32 35 28 25 27 30 35 31 29 33 33 37 42 47 42 40 41 47 51 50 47 44 41
29 30 31 32 31 30 27 25 25 28 29 29 29 30 33 35 35 29 27 30 31 33 34 31 30 29 32 37 44 46 45 42 45 48 52 51 48 44
28 30 32 31 28 26 24 24 26 26 29 30 31 31 32 35 35 30 30 32 34 34 31 30 30 29 30 37 43 42 43 42 46 46 47 50 51 46
27 27 27 26 24 25 25 25 28 32 31 31 30 29 33 32 32 31 30 32 34 33 32 28 28 29 31 32 37 43 43 41 45 46 46 52 54 47
21 24 26 29 28 29 31 32 33 33 32 31 29 29 30 29 30 28 28 33 32 31 29 27 28 29 34 34 35 41 39 42 45 44 48 49 46 44
21 24 26 27 28 30 31 31 31 31 29 29 30 29 27 28 29 26 31 32 28 27 26 29 27 25 28 32 32 32 36 39 40 45 51 50 46 39
24 23 26 27 30 32 31 29 30 31 32 32 29 26 26 27 27 28 30 31 28 26 25 23 22 22 27 32 33 34 33 34 37 44 49 51 51 43
26 26 27 27 27 27 27 27 27 27 26 25 23 24 26 27 26 28 28 28 25 25 20 20 18 16 21 29 33 34 38 35 36 37 37 37 37 34
Wind_Direction
267 261 277 263 257 259 272 297 284 263 257 264 270 277 267 256 255 252 252 250 259 259 250 244 243 240 248 251 269 270 285 266 260 228 248 251 257 269
291 294 292 291 281 281 293 299 284 310 308 289 277 284 279 266 261 252 253 254 244 249 248 246 239 240 242 256 267 276 274 262 253 250 240 246 258 265
304 311 307 307 304 301 291 296 295 304 316 301 313 291 259 250 247 249 252 252 243 245 247 247 244 248 257 259 263 272 270 264 252 250 240 245 256 261
292 296 301 312 304 298 303 310 298 296 304 308 300 301 333 284 273 260 260 250 238 244 252 249 248 249 254 260 265 270 265 259 252 247 245 237 260 256
304 302 297 293 293 297 298 296 303 301 301 299 295 294 297 314 278 274 258 253 249 256 258 256 255 259 258 260 262 256 261 257 253 239 231 248 246 256
307 306 301 299 307 312 307 308 305 303 302 303 301 302 295 294 297 303 284 280 281 276 269 263 267 265 261 256 253 256 256 252 253 223 235 239 241 252
314 310 307 308 310 307 314 318 310 310 309 306 303 299 303 304 309 307 301 296 283 275 275 266 271 264 259 254 249 244 242 251 216 228 235 228 241 249
316 314 315 317 317 317 313 293 299 311 314 311 310 307 307 303 302 304 301 304 304 288 287 282 291 281 275 262 253 243 230 215 234 228 224 234 241 248
320 322 324 328 323 321 305 309 309 308 300 300 297 297 296 298 293 282 282 288 292 290 293 295 291 283 275 264 239 221 226 241 233 225 233 236 242 247
329 331 327 321 312 314 308 314 318 317 314 304 297 295 292 290 287 286 283 278 276 279 283 281 283 280 269 254 245 245 246 236 224 233 236 237 242 246
317 304 295 300 303 303 311 318 319 316 316 316 316 313 308 300 293 289 286 287 284 281 274 280 276 275 268 261 249 242 237 230 235 236 236 235 240 242
308 311 302 294 297 301 307 313 312 317 322 318 315 311 310 307 304 288 285 283 284 285 283 270 277 267 259 260 247 237 235 236 237 236 234 234 235 238
316 318 323 307 299 299 305 306 307 311 310 309 312 314 311 310 308 303 286 284 276 275 265 269 279 263 258 248 252 243 240 239 235 233 233 234 233 233
305 307 310 311 308 302 302 305 309 302 306 317 313 313 313 313 308 292 282 278 277 269 273 262 265 268 262 249 245 246 242 243 238 230 227 228 230 230
302 303 298 299 297 297 304 307 302 296 313 316 315 315 313 312 311 305 301 288 286 282 267 260 259 256 259 255 249 247 239 233 236 233 230 227 228 228
313 312 303 301 299 299 302 304 303 307 311 310 311 313 313 312 316 310 305 306 298 291 290 270 255 250 251 255 249 244 242 225 228 231 232 229 226 228
308 305 305 306 307 305 305 302 302 306 309 311 311 310 310 312 314 309 307 307 302 288 287 283 263 257 251 249 246 246 237 236 236 231 227 225 224 226
306 302 300 304 307 307 304 300 299 302 306 307 306 304 305 308 310 308 307 305 305 293 280 279 269 263 254 245 241 237 240 238 237 226 226 222 220 218
300 307 306 298 301 303 300 298 298 302 303 301 300 302 306 308 304 303 298 304 306 296 286 279 268 259 240 233 241 237 236 237 232 224 223 224 222 213
299 302 302 301 299 296 297 298 299 299 299 302 302 303 306 307 306 299 302 306 306 300 290 282 268 256 238 231 226 232 229 232 228 223 213 212 217 209
304 301 302 302 300 299 298 297 296 297 299 298 297 298 303 310 308 301 304 307 308 301 288 279 274 273 258 246 233 225 221 222 232 227 212 204 199 193
312 303 299 295 294 295 297 296 294 291 290 291 295 299 306 306 307 305 302 312 312 303 291 287 279 260 240 235 224 223 206 203 207 205 207 205 193 186
320 316 312 308 304 299 294 292 292 293 294 297 296 296 300 303 306 307 306 314 315 307 295 288 280 256 229 221 220 205 190 184 187 184 190 201 199 194
Height
1453 1453 1453 1453 1452 1449 1450 1448 1441 1440 1436 1438 1439 1439 1440 1441 1442 1444 1445 1449 1454 1457 1458 1460 1463 1465 1469 1471 1472 1475 1476 1478 1480 1474 1481 1483 1486 1488
1449 1448 1448 1447 1444 1443 1442 1443 1441 1437 1432 1432 1430 1429 1430 1431 1431 1432 1436 1439 1442 1449 1450 1452 1454 1457 1460 1462 1463 1466 1467 1468 1471 1474 1474 1477 1479 1481
1447 1446 1443 1444 1439 1441 1438 1435 1434 1432 1429 1425 1423 1423 1421 1422 1423 1425 1429 1430 1433 1437 1440 1443 1446 1448 1450 1452 1453 1456 1458 1459 1461 1464 1465 1468 1471 1474
1441 1441 1440 1438 1437 1434 1432 1431 1429 1426 1425 1420 1419 1419 1417 1415 1416 1417 1419 1420 1421 1426 1430 1434 1435 1437 1439 1441 1443 1444 1447 1449 1451 1454 1457 1460 1464 1467
1437 1436 1434 1434 1432 1429 1427 1426 1424 1420 1419 1417 1414 1412 1412 1411 1408 1409 1409 1411 1413 1416 1419 1422 1424 1425 1426 1428 1431 1433 1436 1437 1440 1444 1448 1452 1456 1459
1433 1432 1431 1430 1428 1423 1421 1421 1419 1417 1416 1413 1410 1407 1406 1406 1406 1405 1404 1406 1406 1407 1409 1411 1412 1412 1412 1414 1417 1420 1423 1426 1429 1434 1440 1444 1449 1452
1428 1427 1426 1424 1422 1420 1418 1417 1415 1413 1410 1407 1405 1404 1403 1403 1402 1400 1399 1399 1399 1400 1400 1402 1402 1401 1401 1402 1404 1407 1411 1415 1419 1425 1432 1436 1441 1445
1423 1422 1421 1419 1417 1416 1415 1414 1413 1411 1408 1405 1402 1400 1399 1398 1398 1396 1395 1393 1392 1393 1393 1392 1392 1391 1392 1393 1395 1397 1403 1408 1413 1419 1424 1429 1434 1437
1420 1418 1416 1415 1414 1412 1411 1410 1409 1406 1405 1402 1399 1397 1394 1393 1393 1391 1391 1389 1388 1388 1387 1384 1386 1386 1387 1388 1390 1394 1398 1403 1408 1412 1418 1422 1427 1430
1417 1415 1413 1412 1411 1410 1406 1404 1402 1400 1398 1396 1394 1392 1391 1389 1387 1385 1383 1381 1381 1381 1383 1379 1380 1380 1382 1384 1387 1390 1393 1397 1401 1406 1411 1416 1420 1423
1413 1412 1411 1409 1408 1406 1403 1400 1398 1396 1394 1391 1389 1386 1384 1382 1381 1378 1377 1376 1372 1373 1376 1375 1374 1374 1375 1377 1379 1382 1387 1391 1395 1399 1404 1408 1412 1415
1410 1408 1406 1405 1404 1401 1399 1396 1392 1390 1388 1384 1382 1380 1378 1375 1374 1373 1371 1369 1369 1366 1369 1369 1369 1370 1369 1367 1371 1374 1378 1383 1387 1391 1395 1399 1404 1407
1404 1401 1400 1399 1397 1395 1393 1391 1388 1386 1383 1380 1376 1374 1371 1369 1367 1366 1366 1364 1362 1359 1362 1362 1361 1361 1361 1360 1363 1365 1368 1372 1377 1382 1386 1390 1394 1399
1399 1397 1395 1393 1391 1390 1388 1385 1382 1380 1377 1374 1371 1368 1365 1363 1360 1358 1356 1354 1353 1351 1352 1353 1352 1353 1353 1352 1354 1357 1359 1362 1366 1371 1375 1380 1385 1390
1394 1391 1389 1387 1385 1382 1380 1378 1376 1373 1370 1367 1364 1362 1359 1356 1352 1348 1345 1343 1340 1339 1341 1342 1340 1343 1344 1342 1343 1348 1351 1352 1356 1361 1366 1369 1374 1379
1387 1384 1381 1380 1379 1376 1372 1370 1368 1366 1364 1361 1358 1354 1352 1349 1344 1341 1337 1335 1332 1327 1328 1329 1330 1331 1331 1332 1335 1338 1340 1342 1346 1350 1356 1362 1366 1371
1381 1377 1374 1371 1369 1367 1364 1363 1361 1358 1355 1353 1350 1347 1343 1340 1334 1333 1331 1328 1324 1320 1317 1316 1319 1319 1320 1322 1322 1325 1328 1331 1337 1340 1345 1350 1357 1363
1375 1371 1367 1365 1363 1361 1359 1357 1355 1353 1350 1347 1344 1341 1337 1333 1328 1324 1322 1320 1315 1311 1307 1307 1307 1308 1308 1309 1312 1314 1318 1322 1328 1331 1336 1341 1347 1353
1369 1366 1362 1359 1357 1355 1353 1351 1348 1346 1344 1341 1338 1335 1331 1326 1323 1319 1317 1313 1306 1301 1297 1297 1297 1298 1298 1295 1300 1303 1308 1312 1318 1323 1327 1332 1337 1345
1364 1360 1357 1354 1351 1349 1346 1344 1340 1338 1335 1333 1329 1327 1324 1320 1316 1313 1310 1305 1300 1294 1290 1288 1287 1287 1288 1289 1292 1295 1298 1302 1308 1313 1319 1327 1333 1341
1357 1354 1351 1347 1344 1342 1339 1336 1333 1331 1328 1325 1323 1320 1317 1314 1309 1305 1302 1298 1292 1287 1282 1279 1277 1278 1279 1281 1284 1286 1289 1293 1300 1304 1309 1318 1323 1331
1350 1347 1344 1341 1338 1335 1332 1329 1326 1323 1320 1317 1315 1313 1310 1307 1303 1300 1295 1290 1284 1279 1275 1272 1271 1271 1271 1273 1275 1277 1283 1289 1295 1300 1305 1308 1310 1320
1344 1341 1337 1333 1330 1327 1324 1320 1317 1314 1312 1310 1308 1306 1304 1300 1297 1293 1289 1284 1278 1273 1269 1266 1265 1264 1266 1267 1270 1274 1278 1285 1291 1296 1303 1308 1314 1317